STARLINK-32266, 60369

Orbit data source: Space-Track

STARLINK-32266, 60369 is a payload satellite owned by SpaceX/Seattle (US) in LEO that was launched on Sun, 04 Aug 2024 UTC via an FALCON 9 launch vehicle from the Air Force Western Test Range (AFWTR). Payload-class satellites include a variety of spacecraft equipped with specific instruments for various scientific and technological missions. These include communications satellites like Starlink; space stations such as the ISS; scientific satellites like the Hubble; Earth observation satellites from companies like Planet Labs, Umbra, and HawkEye 360; GPS; miniature CubeSats for education and research; and military/defense satellites.

Loading next visibility...
Identifier
60369, 2024-138Q
Orbit
LEO
Country
Flag of USUS
Related business
Manufacturer
SpaceX/Seattle
Mission
Operational Commercial Communications
Bus & Motor
STARLINK V2M, Unknown motor
Mass
730 kg wet, ~700 kg dry
Launch date (UTC)
2024-08-04 (1 year ago)
Launch vehicle
FALCON 9
Launch site
Air Force Western Test Range (AFWTR)
Object type
Payload
Rocket body
Debris
Shape & HBR
Box + 2 Pan, 14.5 m
Radar Cross Section
33.884 m², Large (>1 m²)

Expand to show TLE details & history
Last TLE update: 7 hours ago

TLE from 7 hours ago
0 STARLINK-32266
1 60369U 24138Q   25258.59836521 -.00000333  00000-0  89508-6 0  9999
2 60369  53.1623  30.3594 0001104  89.9276 270.1851 15.30192162 63998
Epoch: 2025-09-15T14:21Z
TLE epoch observation values (Epoch: 2025-09-15T14:21:38.754Z)
Latitude
-0.00003°
Longitude
-179.85282°
Altitude
476.136 km
Speed
7.629 km/s
True Right ascension
02h 01m 26s
True Declination
0° 00' 00"
Sunlit
Object was in full shadow at epoch
Visualization orbit readout
Latitude
Unknown
Longitude
Unknown
Altitude
Unknown
Speed
Unknown
Apparent Right ascension
Unknown
Apparent Declination
Unknown
Sunlit
N/A
Visualization observer readout
Local Sidereal Time
13:54:35
Azimuth
Unknown
Elevation
Unknown
Doppler factor
Unknown
Orbital elements
Apogee altitude
476.251 km
Perigee altitude
474.738 km
Semi-major axis
6,853.632 km
Eccentricity
0.00011
Inclination
53.1623°
RAAN
30.3594°
Arg. of periapsis
89.9276°
True anomaly
270.17245°
Mean anomaly
270.1851°
Eccentric anomaly
270.17877°
Mean motion
3.82527 °/min
Orbital period
94.11 mins
BSTAR
8.9508e-7
Loading maneuver chart data...
Computing Atmospheric mass density...
Loading historical data...
Loading historical data...
Loading historical data...
Loading historical data...
Loading historical data...
Loading historical data...
Loading historical data...

Documentation

Showing up to 5 results
|